This is the latest recevied weather packets stored in our database for station/object N8AMF. If no packets are shown the sender has not sent any weather packets the latest 10 day(s).
| Time | Temp. | Humidity | Pressure | Rain* | Wind** | Luminosity | Snow |
|---|---|---|---|---|---|---|---|
| 1778023635 | 10° C | 98% | 1006.9 hPa | 0.51 mm | - | 8 W/m² | - |
| 1778023333 | 10° C | 98% | 1007.2 hPa | 0.51 mm | - | 8 W/m² | - |
| 1778023029 | 10° C | 98% | 1007.3 hPa | 0.51 mm | - | 22 W/m² | - |
| 1778022728 | 10° C | 98% | 1007.1 hPa | 0.51 mm | - | 20 W/m² | - |
| 1778022426 | 10° C | 97% | 1007 hPa | 1.27 mm | - | 29 W/m² | - |
| 1778022122 | 10° C | 97% | 1007.5 hPa | 5.33 mm | - | 38 W/m² | - |
| 1778021818 | 10° C | 97% | 1007.8 hPa | 7.87 mm | - | 20 W/m² | - |
| 1778021515 | 10° C | 97% | 1007.9 hPa | 7.11 mm | - | 11 W/m² | - |
| 1778021211 | 10° C | 97% | 1007.8 hPa | 7.11 mm | - | 10 W/m² | - |
| 1778020909 | 10° C | 97% | 1007.7 hPa | 3.56 mm | - | 12 W/m² | - |
| 1778020606 | 10° C | 97% | 1007.7 hPa | 2.29 mm | - | 12 W/m² | - |
| 1778020303 | 10° C | 97% | 1007.7 hPa | 4.83 mm | - | 25 W/m² | - |
| 1778019998 | 10° C | 97% | 1007.9 hPa | 4.32 mm | - | 13 W/m² | - |
| 1778019695 | 10° C | 97% | 1007.3 hPa | 2.29 mm | - | 15 W/m² | - |
| 1778019392 | 10° C | 97% | 1007.1 hPa | 3.05 mm | - | 28 W/m² | - |
| 1778019088 | 10.56° C | 97% | 1007.3 hPa | 3.05 mm | - | 37 W/m² | - |
| 1778018786 | 10° C | 97% | 1007.4 hPa | 4.83 mm | - | 39 W/m² | - |
| 1778018483 | 10.56° C | 97% | 1007.4 hPa | 7.11 mm | - | 33 W/m² | - |
| 1778018181 | 10.56° C | 97% | 1007.3 hPa | 7.11 mm | - | 19 W/m² | - |
| 1778017879 | 10.56° C | 97% | 1007.6 hPa | 4.32 mm | - | 13 W/m² | - |
| 1778017577 | 10.56° C | 97% | 1007.2 hPa | 2.29 mm | - | 19 W/m² | - |
| 1778017274 | 10.56° C | 97% | 1006.8 hPa | 3.05 mm | - | 54 W/m² | - |
| 1778016971 | 10.56° C | 97% | 1007 hPa | 5.33 mm | - | 52 W/m² | - |
| 1778016668 | 10.56° C | 96% | 1007 hPa | 3.56 mm | - | 45 W/m² | - |
| 1778016364 | 11.11° C | 97% | 1007.1 hPa | 1.78 mm | - | 21 W/m² | - |
* Rain latest hour (hover to see other rain measurements)
** Current wind speed in m/s (hover to see current wind gust speed)